This is the latest recevied weather packets stored in our database for station/object N8GD. If no packets are shown the sender has not sent any weather packets the latest 10 day(s).
| Time | Temp. | Humidity | Pressure | Rain* | Wind** | Luminosity | Snow |
|---|---|---|---|---|---|---|---|
| 1777899105 | 12.22° C | 62% | 1011.6 hPa | 0 mm | - | - | - |
| 1777898263 | 12.22° C | 63% | 1011.6 hPa | 0 mm | - | - | - |
| 1777897363 | 11.67° C | 63% | 1011.4 hPa | 0 mm | - | - | - |
| 1777897305 | 11.67° C | 63% | 1011.4 hPa | 0 mm | - | - | - |
| 1777896464 | 10.56° C | 64% | 1011.3 hPa | 0 mm | - | - | - |
| 1777895563 | 10° C | 67% | 1011.2 hPa | 0 mm | - | - | - |
| 1777895502 | 10° C | 67% | 1011.2 hPa | 0 mm | - | - | - |
| 1777894663 | 9.44° C | 67% | 1011.2 hPa | 0 mm | - | - | - |
| 1777893764 | 9.44° C | 68% | 1011.2 hPa | 0 mm | - | - | - |
| 1777893704 | 9.44° C | 67% | 1011.2 hPa | 0 mm | - | - | - |
| 1777892863 | 9.44° C | 68% | 1011.2 hPa | 0 mm | - | - | - |
| 1777891963 | 8.89° C | 69% | 1011.3 hPa | 0 mm | - | - | - |
| 1777891063 | 8.89° C | 69% | 1011.3 hPa | 0 mm | - | - | - |
| 1777890163 | 8.89° C | 68% | 1011.5 hPa | 0 mm | - | - | - |
| 1777890104 | 8.89° C | 68% | 1011.5 hPa | 0 mm | - | - | - |
| 1777889263 | 8.89° C | 69% | 1011.8 hPa | 0 mm | - | - | - |
| 1777888362 | 8.33° C | 70% | 1011.8 hPa | 0 mm | - | - | - |
| 1777888302 | 8.33° C | 70% | 1011.8 hPa | 0 mm | - | - | - |
| 1777887462 | 8.33° C | 68% | 1011.9 hPa | 0 mm | - | - | - |
| 1777886564 | 8.33° C | 67% | 1011.9 hPa | 0 mm | - | - | - |
| 1777886503 | 8.33° C | 67% | 1011.9 hPa | 0 mm | - | - | - |
| 1777885662 | 8.89° C | 67% | 1012.1 hPa | 0 mm | - | - | - |
| 1777884523 | 8.89° C | 67% | 1012.3 hPa | 0 mm | - | - | - |
| 1777883622 | 8.33° C | 67% | 1012.4 hPa | 0 mm | - | - | - |
| 1777882909 | 8.33° C | 70% | 1012.5 hPa | 0 mm | - | - | - |
* Rain latest hour (hover to see other rain measurements)
** Current wind speed in m/s (hover to see current wind gust speed)